Regional Weather Roundup
Issued by NWS

Home | Current Version | Previous Version | Graphics & Text | Print | Product List | Glossary On
Versions: 1 2 3 4 5 6 7 8 9 10 11 12 13 14 15 16 17 18 19 20 21 22 23 24 25 26 27 28 29 30 31 32 33 34 35 36 37 38 39 40 41 42 43 44 45 46 47 48 49 50
000
ASUS43 KLMK 261010
RWRKY
KENTUCKY REGIONAL WEATHER ROUNDUP
NATIONAL WEATHER SERVICE LOUISVILLE KY
600 AM EDT SUN APR 26 2015

NOTE "FAIR" INDICATES FEW OR NO CLOUDS BELOW 12,000 FEET
WITH NO SIGNIFICANT WEATHER AND/OR OBSTRUCTIONS TO VISIBILITY.

KYZ001>023-026-027-061>063-070>075-261100-
WESTERN AND SOUTH CENTRAL KENTUCKY

CITY           SKY/WX    TMP DP  RH WIND       PRES   REMARKS
PADUCAH        CLOUDY    51  48  89 N12       29.73R
HENDERSON      CLOUDY    45  43  93 N10       29.74R
OWENSBORO      CLOUDY    48  45  90 NE7       29.74R
HOPKINSVILLE   CLOUDY    53  52  96 N10       29.69R
BOWLING GREEN  CLOUDY    50  46  86 N7        29.69R
GLASGOW        CLOUDY    47  47 100 NE5       29.69R
$$

KYZ024-025-028>034-038-045-046-053-261100-
NORTH CENTRAL KENTUCKY

CITY           SKY/WX    TMP DP  RH WIND       PRES   REMARKS
LOUISVILLE/SDF MOCLDY    46  43  89 NE3       29.73R
LOUISVILLE/LOU MOCLDY    45  42  89 NE6       29.73S
FORT KNOX      CLOUDY    45  42  90 NE10      29.70R
$$

KYZ035>037-039>044-047>052-055>060-089>105-261100-
NORTHEAST KENTUCKY

CITY           SKY/WX    TMP DP  RH WIND       PRES   REMARKS
LEXINGTON      CLOUDY    43  41  93 N9        29.70R
COVINGTON      NOT AVBL
FRANKFORT      CLOUDY    44  41  89 N9        29.70R
$$

KYZ054-064>069-076>088-106>120-261100-
SOUTHEAST KENTUCKY

CITY           SKY/WX    TMP DP  RH WIND       PRES   REMARKS
JACKSON        CLOUDY    44  42  93 CALM      29.66R
LONDON         LGT RAIN  51  46  83 NE9       29.65R
SOMERSET       CLOUDY    45  45 100 N6        29.68S
MIDDLESBORO    CLOUDY    58  58 100 CALM      29.62R
MONTICELLO     CLOUDY    49  49 100 NE10      29.69R FOG
$$




USA.gov is the U.S. government's official web portal to all federal, state and local government web resources and services.